Location: Castelbiague
(43.0361°N, 0.9246°E)
Time: 14:05:12
(UTC+00:00)

SL-8 R/B - Pass Details

Date: 17 June 2021
Orbit: 656 x 667 km, 48.4° (Epoch: 04 August)

Event Time Altitude Azimuth Distance (km) Brightness Sun altitude
Rises 22:02:03 0° 295° (WNW) 2,992 7.9 -18.5°
Reaches altitude 10° 22:04:24 10° 294° (WNW) 2,076 7.0 -18.7°
Maximum altitude 22:09:12 80° 209° (SSW) 672 3.6 -19.0°
Enters shadow 22:10:57 39° 128° (SE) 982 4.1 -19.2°
